| time (UTC) | temp C | wind direction | speed KPH | gust KPH | rain 1hr cm | rain 24hr cm | rain mn cm | humidity % | barometer mb |
| 20260504023248 | 31 | 0.0 | 0.0 | 0.00 | 0.00 | 0.00 | 15 | 1006.0 | |
| 20260504022216 | 31 | 0.0 | 0.0 | 0.00 | 0.00 | 0.00 | 14 | 1006.0 | |
| 20260504021215 | 32 | 0.0 | 0.0 | 0.00 | 0.00 | 0.00 | 14 | 1005.7 | |
| 20260504020214 | 32 | 0.0 | 0.0 | 0.00 | 0.00 | 0.00 | 14 | 1005.7 | |
| 20260504015213 | 33 | 0.0 | 0.0 | 0.00 | 0.00 | 0.00 | 14 | 1005.4 | |
| 20260504014212 | 33 | 0.0 | 0.0 | 0.00 | 0.00 | 0.00 | 12 | 1005.4 | |
| 20260504013211 | 34 | 0.0 | 0.0 | 0.00 | 0.00 | 0.00 | 12 | 1005.1 | |
| 20260504012139 | 34 | 0.0 | 0.0 | 0.00 | 0.00 | 0.00 | 12 | 1005.1 | |
| 20260504011105 | 35 | 0.0 | 0.0 | 0.00 | 0.00 | 0.00 | 12 | 1005.5 | |
| 20260504010105 | 35 | 0.0 | 0.0 | 0.00 | 0.00 | 0.00 | 11 | 1005.5 | |
| 20260504005104 | 35 | 0.0 | 0.0 | 0.00 | 0.00 | 0.00 | 11 | 1005.2 | |
| 20260504004032 | 36 | 0.0 | 0.0 | 0.00 | 0.00 | 0.00 | 11 | 1005.5 | |
| 20260504002928 | 36 | 0.0 | 0.0 | 0.00 | 0.00 | 0.00 | 11 | 1005.2 | |
| 20260504001856 | 36 | 0.0 | 0.0 | 0.00 | 0.00 | 0.00 | 10 | 1005.2 | |
| 20260504000855 | 36 | 0.0 | 0.0 | 0.00 | 0.00 | 0.00 | 11 | 1005.2 | |
| 20260503235854 | 36 | 0.0 | 0.0 | 0.00 | 0.00 | 0.00 | 11 | 1005.6 | |
| 20260503234852 | 36 | 0.0 | 0.0 | 0.00 | 0.00 | 0.00 | 11 | 1005.3 | |
| 20260503233851 | 36 | 0.0 | 0.0 | 0.00 | 0.00 | 0.00 | 11 | 1005.6 | |
| 20260503232850 | 36 | 0.0 | 0.0 | 0.00 | 0.00 | 0.00 | 11 | 1005.3 | |
| 20260503231849 | 36 | 0.0 | 0.0 | 0.00 | 0.00 | 0.00 | 10 | 1005.6 | |
| 20260503230847 | 36 | 0.0 | 0.0 | 0.00 | 0.00 | 0.00 | 11 | 1005.7 | |
| 20260503225846 | 36 | 0.0 | 0.0 | 0.00 | 0.00 | 0.00 | 11 | 1005.7 | |
| 20260503224845 | 37 | 0.0 | 0.0 | 0.00 | 0.00 | 0.00 | 12 | 1006.0 | |
| 20260503223844 | 37 | 0.0 | 0.0 | 0.00 | 0.00 | 0.00 | 12 | 1006.0 | |
| 20260503222843 | 37 | 0.0 | 0.0 | 0.00 | 0.00 | 0.00 | 12 | 1006.0 | |
| 20260503221842 | 36 | 0.0 | 0.0 | 0.00 | 0.00 | 0.00 | 12 | 1006.4 | |
| 20260503220841 | 36 | 0.0 | 0.0 | 0.00 | 0.00 | 0.00 | 12 | 1006.3 | |
| 20260503213243 | 36 | 0.0 | 0.0 | 0.00 | 0.00 | 0.00 | 12 | 1007.4 | |
| 20260503212242 | 36 | 0.0 | 0.0 | 0.00 | 0.00 | 0.00 | 12 | 1007.4 | |
| 20260503211139 | 36 | 0.0 | 0.0 | 0.00 | 0.00 | 0.00 | 12 | 1007.7 | |
| 20260503210138 | 36 | 0.0 | 0.0 | 0.00 | 0.00 | 0.00 | 12 | 1008.0 | |
| 20260503205137 | 36 | 0.0 | 0.0 | 0.00 | 0.00 | 0.00 | 12 | 1008.0 | |
| 20260503204137 | 35 | 0.0 | 0.0 | 0.00 | 0.00 | 0.00 | 14 | 1008.3 | |
| 20260503203135 | 36 | 0.0 | 0.0 | 0.00 | 0.00 | 0.00 | 14 | 1008.4 | |
| 20260503202134 | 35 | 0.0 | 0.0 | 0.00 | 0.00 | 0.00 | 14 | 1008.7 | |
| 20260503201134 | 35 | 0.0 | 0.0 | 0.00 | 0.00 | 0.00 | 15 | 1008.7 | |
| 20260503200131 | 35 | 0.0 | 0.0 | 0.00 | 0.00 | 0.00 | 15 | 1008.7 | |
| 20260503195130 | 35 | 0.0 | 0.0 | 0.00 | 0.00 | 0.00 | 15 | 1008.7 | |
| 20260503194129 | 35 | 0.0 | 0.0 | 0.00 | 0.00 | 0.00 | 15 | 1008.7 | |
| 20260503193128 | 35 | 0.0 | 0.0 | 0.00 | 0.00 | 0.00 | 16 | 1009.0 | |
| 20260503192127 | 35 | 0.0 | 0.0 | 0.00 | 0.00 | 0.00 | 16 | 1009.3 | |
| 20260503191126 | 34 | 0.0 | 0.0 | 0.00 | 0.00 | 0.00 | 17 | 1009.3 | |
| 20260503190125 | 34 | 0.0 | 0.0 | 0.00 | 0.00 | 0.00 | 17 | 1009.3 | |
| 20260503185123 | 33 | 0.0 | 0.0 | 0.00 | 0.00 | 0.00 | 18 | 1009.6 | |
| 20260503184122 | 33 | 0.0 | 0.0 | 0.00 | 0.00 | 0.00 | 19 | 1009.6 | |
| 20260503183121 | 32 | 0.0 | 0.0 | 0.00 | 0.00 | 0.00 | 19 | 1009.9 | |
| 20260503182120 | 32 | 0.0 | 0.0 | 0.00 | 0.00 | 0.00 | 20 | 1009.9 | |
| 20260503181120 | 32 | 0.0 | 0.0 | 0.00 | 0.00 | 0.00 | 19 | 1009.9 | |
| 20260503180119 | 32 | 0.0 | 0.0 | 0.00 | 0.00 | 0.00 | 20 | 1010.2 | |
| 20260503175118 | 31 | 0.0 | 0.0 | 0.00 | 0.00 | 0.00 | 20 | 1010.2 | |
| 20260503174117 | 31 | 0.0 | 0.0 | 0.00 | 0.00 | 0.00 | 21 | 1010.1 | |
| 20260503173117 | 31 | 0.0 | 0.0 | 0.00 | 0.00 | 0.00 | 21 | 1010.5 | |
| 20260503172116 | 31 | 0.0 | 0.0 | 0.00 | 0.00 | 0.00 | 22 | 1010.5 | |
| 20260503171115 | 30 | 0.0 | 0.0 | 0.00 | 0.00 | 0.00 | 22 | 1010.4 | |
| 20260503150856 | 27 | 0.0 | 0.0 | 0.00 | 0.00 | 0.00 | 26 | 1010.4 | |
| 20260503130609 | 25 | 0.0 | 0.0 | 0.00 | 0.00 | 0.00 | 27 | 1009.8 | |
| 20260503110525 | 26 | 0.0 | 0.0 | 0.00 | 0.00 | 0.00 | 24 | 1009.6 | |
| 20260503090443 | 26 | 0.0 | 0.0 | 0.00 | 0.00 | 0.00 | 20 | 1009.6 | |
| 20260503081111 | 27 | 0.0 | 0.0 | 0.00 | 0.00 | 0.00 | 19 | 1010.0 | |
| 20260503080110 | 27 | 0.0 | 0.0 | 0.00 | 0.00 | 0.00 | 19 | 1009.9 | |
| 20260503072003 | 26 | 0.0 | 0.0 | 0.00 | 0.00 | 0.00 | 19 | 1009.8 | |
| 20260503071003 | 26 | 0.0 | 0.0 | 0.00 | 0.00 | 0.00 | 19 | 1009.8 | |
| 20260503060209 | 27 | 0.0 | 0.0 | 0.00 | 0.00 | 0.00 | 17 | 1009.4 | |
| 20260503055106 | 27 | 0.0 | 0.0 | 0.00 | 0.00 | 0.00 | 17 | 1009.8 | |
| 20260503054105 | 27 | 0.0 | 0.0 | 0.00 | 0.00 | 0.00 | 16 | 1009.4 | |
| 20260503050306 | 27 | 0.0 | 0.0 | 0.00 | 0.00 | 0.00 | 16 | 1009.4 | |
| 20260503045234 | 27 | 0.0 | 0.0 | 0.00 | 0.00 | 0.00 | 16 | 1009.4 | |
| 20260503044233 | 27 | 0.0 | 0.0 | 0.00 | 0.00 | 0.00 | 16 | 1009.0 | |
| 20260503043232 | 28 | 0.0 | 0.0 | 0.00 | 0.00 | 0.00 | 16 | 1008.7 | |
| 20260503042231 | 28 | 0.0 | 0.0 | 0.00 | 0.00 | 0.00 | 16 | 1008.7 | |
| 20260503041230 | 28 | 0.0 | 0.0 | 0.00 | 0.00 | 0.00 | 16 | 1008.7 | |
| 20260503040229 | 28 | 0.0 | 0.0 | 0.00 | 0.00 | 0.00 | 16 | 1008.3 | |
| 20260503035228 | 28 | 0.0 | 0.0 | 0.00 | 0.00 | 0.00 | 15 | 1008.3 | |
| 20260503034227 | 28 | 0.0 | 0.0 | 0.00 | 0.00 | 0.00 | 15 | 1008.3 | |
| 20260503033226 | 29 | 0.0 | 0.0 | 0.00 | 0.00 | 0.00 | 15 | 1008.3 | |
| 20260503032225 | 29 | 0.0 | 0.0 | 0.00 | 0.00 | 0.00 | 15 | 1008.3 | |
| 20260503031224 | 29 | 0.0 | 0.0 | 0.00 | 0.00 | 0.00 | 15 | 1008.0 | |
| 20260503030224 | 30 | 0.0 | 0.0 | 0.00 | 0.00 | 0.00 | 15 | 1008.0 | |
| 20260503025223 | 30 | 0.0 | 0.0 | 0.00 | 0.00 | 0.00 | 14 | 1008.0 | |
| 20260503024150 | 31 | 0.0 | 0.0 | 0.00 | 0.00 | 0.00 | 14 | 1008.0 |